Location: Bauerbach
(50.4985°N, 10.3912°E)
Time: 17:34:58
(UTC+00:00)

Cosmos 2263 Rocket - Pass Details

Date: 13 January 2026
Orbit: 821 x 849 km, 71.0° (Epoch: 16 February)

Event Time Altitude Azimuth Distance (km) Brightness Sun altitude
Exits shadow 05:26:50 10° 336° (NNW) 2,504 4.3 -16.4°
Reaches altitude 10° 05:27:23 10° 342° (NNW) 2,479 4.3 -16.4°
Maximum altitude 05:27:52 10° 347° (NNW) 2,473 4.4 -16.3°
Drops below altitude 10° 05:28:21 10° 351° (N) 2,481 4.4 -16.2°
Sets 05:34:00 0° 36° (NE) 3,423 5.6 -15.3°
